Weather History for ESSF - April, 2013

Change the Weather History Date:

Monday, April 29, 2013

  Actual Average Record
Temperature  
Mean Temperature 42 °F -  
Max Temperature 55 °F - - ()
Min Temperature 30 °F - - ()
Degree Days  
Heating Degree Days 22    
Moisture  
Dew Point 33 °F    
Average Humidity 61    
Maximum Humidity 91    
Minimum Humidity 25    
Precipitation  
Precipitation 0.01 in - - ()
Sea Level Pressure  
Sea Level Pressure 29.82 in    
Wind  
Wind Speed 6 mph ()    
Max Wind Speed 18 mph    
Max Gust Speed -    
Visibility 9.8 miles    
Events Rain    
T = Trace of Precipitation, MM = Missing Value Source: Averaged Metar Reports

Daily Weather History Graph

Daily Weather History Graph

Search for Another Location

Airport or City:

Trip Planner

Search our weather history database for the weather conditions in past years. The results will help you decide how hot, cold, wet, or windy it might be!

Date:

Astronomy

Apr. 29, 2013 Rise Set
Actual Time 5:11 AM CEST 8:38 PM CEST
Civil Twilight 4:24 AM CEST 9:25 PM CEST
Nautical Twilight 3:19 AM CEST 10:31 PM CEST
Astronomical Twilight 1:06 AM CEST 12:21 AM CEST
Moon 12:14 AM CEST 7:48 AM CEST
Length of Visible Light 17h 00m
Length of Day
15h 27m
Waning Gibbous, 82% of the Moon is Illuminated
Apr 29
Waning Gibbous
May 2
Last Quarter
May 10
New
May 18
First Quarter
May 25
Full

Hourly Weather History & Observations

Time (CEST) Temp. Dew Point Humidity Pressure Visibility Wind Dir Wind Speed Gust Speed Precip Events Conditions
12:00 AM 34 °F 32 °F 90% 29.93 in 9 mi Calm Calm - -  
1:00 AM 32 °F 30 °F 88% 29.93 in 9 mi NE 2.2 mph - -  
2:00 AM 31 °F 29 °F 91% 29.93 in 10 mi South 2.2 mph - -   Scattered Clouds
3:00 AM 36 °F 32 °F 79% 29.91 in 10 mi South 4.5 mph - -  
4:00 AM 37 °F 33 °F 78% 29.91 in 11 mi SSE 4.5 mph - -  
6:00 AM 38 °F 34 °F 79% 29.88 in 9 mi SSE 4.5 mph - -   Overcast
7:00 AM 39 °F 33 °F 73% 29.86 in 6 mi SSE 6.7 mph - -   Overcast
8:00 AM 41 °F 34 °F 68% 29.85 in 9 mi SSE 8.9 mph - -   Overcast
9:00 AM 47 °F 35 °F 51% 29.83 in 10 mi South 6.7 mph - -   Scattered Clouds
10:00 AM 50 °F 36 °F 48% 29.81 in 12 mi SSE 6.7 mph - -   Overcast
12:00 PM 53 °F 36 °F 40% 29.76 in 9 mi South 15.7 mph - - Rain Rain
1:00 PM 53 °F 34 °F 36% 29.75 in 11 mi South 15.7 mph - -   Clear
2:00 PM 55 °F 31 °F 28% 29.73 in 10 mi SSW 13.4 mph - -   Clear
3:00 PM 53 °F 29 °F 27% 29.73 in 12 mi SSW 13.4 mph - -   Overcast
4:00 PM 53 °F 28 °F 25% 29.73 in 9 mi WSW 17.9 mph - -   Overcast
6:00 PM 49 °F 34 °F 43% 29.76 in 9 mi SW 13.4 mph - -   Overcast
7:00 PM 47 °F 36 °F 54% 29.76 in 11 mi SW 13.4 mph - -   Partly Cloudy
8:00 PM 44 °F 38 °F 74% 29.78 in 12 mi WSW 11.2 mph - - Rain Light Rain Showers
9:00 PM 43 °F 38 °F 75% 29.80 in 8 mi WSW 11.2 mph - - Rain Light Rain
10:00 PM 41 °F 36 °F 77% 29.81 in 9 mi SW 6.7 mph - - Rain Rain